WD4HMR Weather Reports


time (UTC)temp
F
wind
direction
speed
knots
gust
knots
rain 1hr
in
rain 24hr
in
rain mn
in
humidity
%
barometer
mb
20260504180004 74 271 2.6 7.0 0.00 0.00 0.00 44 1017.1
20260504175504 74 101 1.7 7.0 0.00 0.00 0.00 47 1017.2
20260504175003 73 266 3.5 7.0 0.00 0.00 0.00 48 1017.2
20260504174503 74 270 2.6 5.2 0.00 0.00 0.00 47 1017.2
20260504174003 74 284 2.6 4.3 0.00 0.00 0.00 46 1017.3
20260504173504 74 273 1.7 6.1 0.00 0.00 0.00 46 1017.3
20260504172504 73 250 1.7 6.1 0.00 0.00 0.00 48 1017.4
20260504172004 73 273 3.5 6.1 0.00 0.00 0.00 49 1017.5
20260504171504 72 113 2.6 6.1 0.00 0.00 0.00 48 1017.6
20260504171004 73 258 1.7 5.2 0.00 0.00 0.00 48 1017.7
20260504170504 72 249 1.7 6.1 0.00 0.00 0.00 49 1017.7
20260504151003 68 259 2.6 5.2 0.00 0.00 0.00 54 1018.3
20260504150504 69 267 2.6 4.3 0.00 0.00 0.00 53 1018.3
20260504141004 66 310 1.7 4.3 0.00 0.00 0.00 55 1018.5
20260504140504 66 275 2.6 4.3 0.00 0.00 0.00 55 1018.5
20260504130504 63 264 2.6 6.1 0.00 0.00 0.00 56 1018.6
20260504110504 52 100 0.9 2.6 0.00 0.00 0.00 76 1017.8
20260504082004 51 57 0.9 1.7 0.00 0.00 0.00 80 1017.6
20260504081504 51 6 0.0 1.7 0.00 0.00 0.00 80 1017.7
20260504081004 51 298 0.9 1.7 0.00 0.00 0.00 80 1017.8
20260504080503 51 295 0.0 1.7 0.00 0.00 0.00 80 1017.8
20260504050504 53 293 0.9 1.7 0.00 0.00 0.00 75 1018.9
20260504050004 53 89 0.9 1.7 0.00 0.00 0.00 77 1018.9
20260504045504 53 127 0.9 2.6 0.00 0.00 0.00 76 1018.9
20260504045015 53 112 0.9 2.6 0.00 0.00 0.00 75 1018.9
20260504045003 53 113 0.9 2.6 0.00 0.00 0.00 75 1018.9
20260504044509 53 288 0.9 2.6 0.00 0.00 0.00 74 1018.9
20260504044504 53 291 0.9 1.7 0.00 0.00 0.00 74 1018.9
20260504044003 53 263 0.9 1.7 0.00 0.00 0.00 75 1018.8
20260504043504 53 314 0.9 1.7 0.00 0.00 0.00 74 1018.9
20260504043004 53 307 0.0 1.7 0.00 0.00 0.00 75 1018.9
20260504042504 54 50 0.0 1.7 0.00 0.00 0.00 75 1019.1
20260504042004 54 291 0.9 1.7 0.00 0.00 0.00 75 1019.1
20260504041505 54 330 0.0 1.7 0.00 0.00 0.00 74 1019.0
20260504041503 54 320 0.0 1.7 0.00 0.00 0.00 74 1019.0
20260504041004 54 54 1.7 1.7 0.00 0.00 0.00 74 1019.0
20260504040503 54 278 0.9 1.7 0.00 0.00 0.00 74 1019.1
20260504040004 54 89 0.0 2.6 0.00 0.00 0.00 73 1019.1
20260504035504 54 333 0.9 2.6 0.00 0.00 0.00 72 1019.2
20260504035004 54 280 0.9 2.6 0.00 0.00 0.00 74 1019.2
20260504034504 54 58 0.0 1.7 0.00 0.00 0.00 74 1019.3
20260504034004 54 342 0.9 2.6 0.00 0.00 0.00 72 1019.4
20260504033504 54 311 0.9 2.6 0.00 0.00 0.00 72 1019.5
20260504033004 54 84 0.9 1.7 0.00 0.00 0.00 73 1019.4
20260504032504 55 13 0.9 1.7 0.00 0.00 0.00 72 1019.4
20260504032004 55 22 0.9 1.7 0.00 0.00 0.00 75 1019.4
20260504031505 55 328 0.9 1.7 0.00 0.00 0.00 74 1019.5
20260504031503 55 307 0.9 1.7 0.00 0.00 0.00 74 1019.5
20260504031004 55 349 0.9 1.7 0.00 0.00 0.00 73 1019.5
20260504030504 55 63 0.0 1.7 0.00 0.00 0.00 72 1019.4
20260504030004 55 4 0.9 1.7 0.00 0.00 0.00 72 1019.4
20260504025504 55 38 0.0 1.7 0.00 0.00 0.00 73 1019.4
20260504025003 55 21 0.9 1.7 0.00 0.00 0.00 71 1019.3
20260504024504 56 334 0.9 1.7 0.00 0.00 0.00 73 1019.2
20260504024004 56 6 0.9 1.7 0.00 0.00 0.00 72 1019.2
20260504023503 56 38 0.9 1.7 0.00 0.00 0.00 70 1019.2
20260504023004 56 351 0.9 1.7 0.00 0.00 0.00 68 1019.1
20260504022510 56 1 0.9 1.7 0.00 0.00 0.00 68 1019.1
20260504022504 56 4 0.9 1.7 0.00 0.00 0.00 68 1019.1
20260504022004 56 319 0.9 1.7 0.00 0.00 0.00 70 1019.0
20260504021504 57 22 0.9 1.7 0.00 0.00 0.00 70 1019.0
20260504021004 57 311 0.0 1.7 0.00 0.00 0.00 69 1019.0
20260504020503 57 21 0.9 1.7 0.00 0.00 0.00 68 1019.0
20260504015504 58 317 0.0 1.7 0.00 0.00 0.00 70 1018.9
20260504015004 58 288 0.9 1.7 0.00 0.00 0.00 69 1018.9
20260504014504 58 272 0.9 2.6 0.00 0.00 0.00 68 1018.8
20260504014003 58 63 0.9 2.6 0.00 0.00 0.00 68 1018.8
20260504013504 59 43 0.0 1.7 0.00 0.00 0.00 67 1018.8
20260504013015 59 250 0.9 1.7 0.00 0.00 0.00 66 1018.8
20260504013004 59 255 0.9 1.7 0.00 0.00 0.00 66 1018.8
20260504012504 59 300 0.0 1.7 0.00 0.00 0.00 65 1018.8
20260504012007 60 286 0.0 1.7 0.00 0.00 0.00 64 1018.7
20260504011503 60 308 0.0 1.7 0.00 0.00 0.00 62 1018.8
20260504011004 60 63 0.9 1.7 0.00 0.00 0.00 62 1018.8
20260504010504 61 299 0.0 1.7 0.00 0.00 0.00 60 1018.8
20260504010004 61 289 0.0 1.7 0.00 0.00 0.00 59 1018.7
20260504005504 62 243 0.9 1.7 0.00 0.00 0.00 59 1018.6
20260504005004 63 322 0.0 1.7 0.00 0.00 0.00 57 1018.6
20260504004503 63 292 0.0 0.9 0.00 0.00 0.00 56 1018.6
20260504004004 64 308 0.0 0.9 0.00 0.00 0.00 54 1018.5
20260504003504 65 310 0.0 1.7 0.00 0.00 0.00 53 1018.5
20260504003004 66 283 0.0 1.7 0.00 0.00 0.00 52 1018.4
20260504002504 66 20 0.0 1.7 0.00 0.00 0.00 49 1018.4
20260504002004 66 285 0.0 1.7 0.00 0.00 0.00 46 1018.4
20260504001515 67 269 0.9 1.7 0.00 0.00 0.00 46 1018.4
20260504001504 67 273 0.9 1.7 0.00 0.00 0.00 46 1018.4
20260504001003 67 287 0.0 2.6 0.00 0.00 0.00 45 1018.4
20260504000503 68 272 0.9 2.6 0.00 0.00 0.00 44 1018.3
20260504000004 69 275 1.7 2.6 0.00 0.00 0.00 43 1018.3
20260503235504 69 274 0.9 2.6 0.00 0.00 0.00 41 1018.3
20260503235004 70 274 0.9 4.3 0.00 0.00 0.00 40 1018.3
20260503234003 70 278 1.7 6.1 0.00 0.00 0.00 40 1018.3
20260503233504 70 328 2.6 6.1 0.00 0.00 0.00 39 1018.3
20260503233004 71 274 1.7 4.3 0.00 0.00 0.00 39 1018.2
20260503232504 72 261 1.7 4.3 0.00 0.00 0.00 39 1018.2
20260503232004 72 339 1.7 4.3 0.00 0.00 0.00 38 1018.1
20260503231504 71 100 0.9 2.6 0.00 0.00 0.00 37 1018.1
20260503231004 70 252 0.9 4.3 0.00 0.00 0.00 38 1018.1
20260503230503 71 274 2.6 5.2 0.00 0.00 0.00 39 1018.2
20260503230004 71 279 0.9 5.2 0.00 0.00 0.00 38 1018.3
20260503225504 70 343 2.6 5.2 0.00 0.00 0.00 38 1018.3
20260503225003 70 300 2.6 6.1 0.00 0.00 0.00 39 1018.3
20260503224504 70 294 1.7 7.0 0.00 0.00 0.00 37 1018.3
20260503224003 70 291 1.7 7.0 0.00 0.00 0.00 38 1018.4
20260503223503 71 270 3.5 7.0 0.00 0.00 0.00 38 1018.4
20260503223004 70 280 1.7 7.8 0.00 0.00 0.00 38 1018.4
20260503222504 70 268 2.6 7.8 0.00 0.00 0.00 39 1018.5
20260503222004 70 348 1.7 7.0 0.00 0.00 0.00 39 1018.5
20260503221003 70 247 1.7 7.0 0.00 0.00 0.00 38 1018.5
20260503220503 71 280 2.6 5.2 0.00 0.00 0.00 38 1018.5
20260503220005 70 279 2.6 5.2 0.00 0.00 0.00 37 1018.5
20260503215505 70 107 1.7 7.0 0.00 0.00 0.00 39 1018.6
20260503215004 69 289 2.6 7.0 0.00 0.00 0.00 39 1018.6
20260503214504 69 258 3.5 7.0 0.00 0.00 0.00 40 1018.5
20260503214004 69 266 2.6 6.1 0.00 0.00 0.00 39 1018.6
20260503213504 70 264 2.6 7.8 0.00 0.00 0.00 38 1018.7
20260503213003 70 285 1.7 7.8 0.00 0.00 0.00 38 1018.7
20260503212504 70 92 1.7 6.1 0.00 0.00 0.00 40 1018.8
20260503212003 70 253 2.6 6.1 0.00 0.00 0.00 40 1018.8
20260503211015 68 252 1.7 7.0 0.00 0.00 0.00 40 1018.9
20260503211004 68 251 1.7 7.0 0.00 0.00 0.00 40 1018.9
20260503210503 68 271 2.6 7.0 0.00 0.00 0.00 40 1018.9
20260503210004 68 287 4.3 7.0 0.00 0.00 0.00 40 1019.0
20260503205503 68 291 3.5 7.0 0.00 0.00 0.00 40 1019.0
20260503205004 68 267 2.6 7.0 0.00 0.00 0.00 41 1019.1
20260503204503 68 273 3.5 7.0 0.00 0.00 0.00 41 1019.2
20260503204004 68 286 2.6 7.0 0.00 0.00 0.00 41 1019.3
20260503203503 68 262 1.7 7.0 0.00 0.00 0.00 41 1019.3
20260503203004 68 291 3.5 7.0 0.00 0.00 0.00 40 1019.3
20260503202504 68 270 1.7 7.0 0.00 0.00 0.00 40 1019.4
20260503202003 67 260 3.5 7.0 0.00 0.00 0.00 40 1019.5
20260503201508 68 334 1.7 7.0 0.00 0.00 0.00 40 1019.5
20260503201504 68 277 1.7 7.0 0.00 0.00 0.00 40 1019.5
20260503201015 68 267 2.6 7.8 0.00 0.00 0.00 40 1019.6
20260503201004 68 262 2.6 7.8 0.00 0.00 0.00 40 1019.6
20260503200515 67 286 1.7 7.8 0.00 0.00 0.00 41 1019.6
20260503200503 67 284 1.7 7.8 0.00 0.00 0.00 41 1019.6
20260503200003 67 280 2.6 7.8 0.00 0.00 0.00 41 1019.7
20260503195503 67 37 2.6 7.0 0.00 0.00 0.00 41 1019.8
20260503195004 67 286 2.6 7.8 0.00 0.00 0.00 42 1020.0
20260503194504 66 287 4.3 7.8 0.00 0.00 0.00 43 1020.0
20260503194004 67 287 3.5 7.8 0.00 0.00 0.00 42 1020.0
20260503193504 66 250 2.6 7.0 0.00 0.00 0.00 44 1020.1
20260503193004 66 262 1.7 7.0 0.00 0.00 0.00 44 1020.2
20260503192504 66 289 2.6 7.0 0.00 0.00 0.00 44 1020.4
20260503192004 66 277 2.6 6.1 0.00 0.00 0.00 46 1020.4
20260503191503 66 20 2.6 6.1 0.00 0.00 0.00 46 1020.4
20260503191004 65 256 1.7 7.0 0.00 0.00 0.00 47 1020.6
20260503190503 65 247 2.6 7.0 0.00 0.00 0.00 45 1020.6
20260503190004 66 156 3.5 7.0 0.00 0.00 0.00 44 1020.6
20260503185503 66 348 2.6 7.0 0.00 0.00 0.00 44 1020.8
20260503185003 65 282 1.7 7.8 0.00 0.00 0.00 42 1020.8
20260503184504 65 301 2.6 7.8 0.00 0.00 0.00 45 1020.8
20260503184003 65 276 2.6 6.1 0.00 0.00 0.00 43 1020.9
20260503183504 65 289 2.6 6.1 0.00 0.00 0.00 43 1020.9
20260503183004 65 303 2.6 6.1 0.00 0.00 0.00 44 1021.0
20260503182505 64 19 2.6 6.1 0.00 0.00 0.00 48 1021.0
20260503182005 63 240 1.7 7.0 0.00 0.00 0.00 49 1021.1
20260503181015 63 17 2.6 7.0 0.00 0.00 0.00 48 1021.1
20260503181004 63 20 2.6 7.0 0.00 0.00 0.00 48 1021.1